Stations météo

réclame
Mon MeteoGroup
Dax, France (7603): Température de l'air & dewpoint: 16.03.2019 07:00:00 - 22.03.2019 07:00:00 (CET)Dax, France (7603): Température de l'air 5cm: 16.03.2019 07:00:00 - 22.03.2019 07:00:00 (CET)Dax, France (7603): Température de l'air -20cm & Température de l'air -100cm: 16.03.2019 07:00:00 - 22.03.2019 07:00:00 (CET)Dax, France (7603): Vitesse du vent & gusts: 16.03.2019 07:00:00 - 22.03.2019 07:00:00 (CET)Dax, France (7603): Direction du vent: 16.03.2019 07:00:00 - 22.03.2019 07:00:00 (CET)Dax, France (7603): reduced air pressure: 16.03.2019 07:00:00 - 22.03.2019 07:00:00 (CET)Dax, France (7603): visibility: 16.03.2019 07:00:00 - 22.03.2019 07:00:00 (CET)Dax, France (7603): Ensoleillement: 16.03.2019 07:00:00 - 22.03.2019 07:00:00 (CET)Dax, France (7603): Quantités de précipitations: 16.03.2019 07:00:00 - 22.03.2019 07:00:00 (CET)
Date & Time tt [°C] td [°C] tt 5cm [°C] tt -20cm [°C] tt -100cm [°C] ff [km/h] ff [knt] fx [km/h] fx [knt] dd ppp [hPa] vv [km] sd [min] rr [mm]
22.03.2019 07:00:00 2,3 1,6 0,7 11,6 12,3 4 2 11 6 E 1028,1 6 0 0,0
22.03.2019 06:00:00 2,2 1,5 0,8 11,8 12,3 5 3 8 5 E 1028,1 8 0 0,0
22.03.2019 05:00:00 3,1 2,5 1,2 11,9 12,3 5 3 7 4 E 1028,0 7 0 0,0
22.03.2019 04:00:00 2,7 1,8 1,7 12,0 12,3 4 2 6 4 ESE 1028,0 7 0 0,0
22.03.2019 03:00:00 3,3 2,0 2,1 12,2 12,3 0 0 4 2 N 1028,2 9 0 0,0
22.03.2019 02:00:00 4,3 3,0 2,9 12,3 12,3 2 1 4 2 S 1028,6 8 0 0,0
22.03.2019 01:00:00 5,1 3,8 3,1 12,5 12,3 0 0 6 4 N 1028,6 9 0 0,0
22.03.2019 00:00:00 5,2 3,4 3,6 12,5 12,2 3 2 11 6 S 1028,9 9 0 0,0
21.03.2019 23:00:00 6,3 4,0 4,6 12,6 12,2 3 2 7 4 S 1028,8 8 0 0,0
21.03.2019 22:00:00 7,5 4,4 5,5 12,7 12,2 4 2 6 3 S 1028,8 11 0 0,0
21.03.2019 21:00:00 9,6 4,6 8,2 12,7 12,3 2 1 9 5 WNW 1028,6 18 0 0,0
21.03.2019 20:00:00 11,4 4,4 10,1 12,7 12,3 6 3 11 6 NW 1028,3 17 0 0,0
21.03.2019 19:00:00 13,3 4,2 - - - 9 5 18 10 NW 1028,2 21 - -
21.03.2019 18:00:00 15,2 4,5 16,8 12,4 12,2 11 6 19 10 W 1027,9 23 60 0,0
21.03.2019 17:00:00 16,2 3,9 19,1 12,2 12,3 9 5 25 14 WNW 1027,7 12 60 0,0
21.03.2019 16:00:00 16,4 4,1 19,6 11,9 12,3 10 6 23 12 WNW 1027,8 20 60 0,0
21.03.2019 15:00:00 17,0 0,6 19,5 11,6 12,2 8 4 13 7 SSW 1028,3 12 60 0,0
21.03.2019 14:00:00 16,0 0,5 19,2 11,4 12,3 9 5 18 10 ENE 1029,1 12 60 0,0
21.03.2019 13:00:00 15,5 1,6 18,9 11,1 12,3 5 3 15 8 E 1029,9 10 60 0,0
21.03.2019 12:00:00 13,3 0,6 17,4 11,0 12,3 5 3 10 5 NNW 1030,3 20 60 0,0
21.03.2019 11:00:00 11,6 4,6 14,2 11,0 12,2 3 2 7 4 ENE 1030,7 15 60 0,0
21.03.2019 10:00:00 8,8 5,0 8,9 11,1 12,3 0 0 6 3 N 1030,8 10 60 0,0
21.03.2019 09:00:00 5,4 3,7 2,8 11,2 12,3 4 2 5 3 SE 1031,1 6 60 0,0
21.03.2019 08:00:00 1,4 1,0 -0,5 11,4 12,3 0 0 8 4 N 1031,2 1,0 33 0,0
21.03.2019 07:00:00 1,1 0,5 -0,5 11,5 12,3 0 0 7 4 N 1030,7 0,9 0 0,0
21.03.2019 06:00:00 1,2 0,5 -0,3 11,6 12,3 0 0 5 3 N 1030,4 9 0 0,0
21.03.2019 05:00:00 1,8 1,1 0,7 11,8 12,3 0 0 4 2 N 1030,0 10 0 0,0
21.03.2019 04:00:00 2,9 1,9 1,6 11,9 12,3 0 0 7 4 N 1030,1 10 0 0,0
21.03.2019 03:00:00 3,7 2,5 1,9 12,0 12,3 2 1 5 3 NNW 1030,5 12 0 0,0
21.03.2019 02:00:00 3,9 2,6 2,3 12,1 12,3 2 1 5 3 S 1031,0 11 0 0,0
21.03.2019 01:00:00 5,3 3,5 4,0 12,2 12,3 3 2 5 3 S 1031,4 12 0 0,0
21.03.2019 00:00:00 7,1 3,2 5,1 12,3 12,3 4 2 10 5 ENE 1031,6 18 0 0,0
20.03.2019 23:00:00 9,1 4,3 7,8 12,4 12,3 5 3 11 6 NNE 1031,8 20 0 0,0
20.03.2019 22:00:00 9,8 4,2 8,8 12,4 12,3 5 3 17 9 N 1031,9 21 0 0,0
20.03.2019 21:00:00 10,3 4,2 9,5 12,4 12,3 10 6 18 10 N 1031,7 20 0 0,0
20.03.2019 20:00:00 11,5 4,2 10,6 12,4 12,3 9 5 23 12 NNW 1031,2 20 0 0,0
20.03.2019 19:00:00 13,5 4,4 13,0 12,3 12,3 11 6 23 12 NNW 1030,7 21 51 0,0
20.03.2019 18:00:00 15,8 3,6 18,2 12,1 12,3 5 3 16 9 SE 1030,4 39 60 0,0
20.03.2019 17:00:00 16,3 1,9 18,9 11,8 12,3 5 3 20 11 S 1030,3 14 60 0,0
20.03.2019 16:00:00 16,2 -0,1 20,1 11,6 12,3 6 3 14 8 NW 1030,8 14 60 0,0
20.03.2019 15:00:00 15,3 0,3 17,7 11,3 12,3 4 2 17 9 E 1031,4 12 60 0,0
20.03.2019 14:00:00 14,5 0,3 17,4 11,1 12,3 9 5 22 12 E 1032,0 12 60 0,0
20.03.2019 13:00:00 13,5 -1,3 16,5 10,9 12,3 8 4 24 13 ENE 1032,9 12 60 0,0
20.03.2019 12:00:00 12,5 2,1 15,2 10,8 12,3 12 7 23 13 E 1033,3 12 60 0,0
20.03.2019 11:00:00 10,4 3,9 11,7 10,8 12,3 4 2 13 7 NE 1033,8 9 60 0,0
20.03.2019 10:00:00 8,2 3,6 10,0 10,9 12,3 4 2 14 7 E 1033,5 7 60 0,0
20.03.2019 09:00:00 4,5 3,8 3,4 11,0 12,3 0 0 6 3 N 1033,2 3,0 60 0,0
20.03.2019 08:00:00 1,0 0,6 -1,1 11,1 12,3 3 2 5 3 NNW 1032,9 3,0 31 0,0
20.03.2019 07:00:00 0,4 0,0 -1,5 11,3 12,3 0 0 4 2 N 1032,2 5 0 0,0
20.03.2019 06:00:00 1,7 1,3 -0,3 11,4 12,3 0 0 4 2 N 1032,0 7 0 0,0
20.03.2019 05:00:00 1,1 0,4 -0,5 11,6 12,3 0 0 4 2 N 1031,9 11 0 0,0
20.03.2019 04:00:00 2,2 1,5 0,2 11,7 12,3 2 1 4 2 N 1031,6 7 0 0,0
20.03.2019 03:00:00 2,2 1,3 0,8 11,8 12,3 0 0 4 2 N 1031,8 7 0 0,0
20.03.2019 02:00:00 3,3 2,4 2,1 11,9 12,3 0 0 3 2 N 1032,1 8 0 0,0
20.03.2019 01:00:00 4,0 3,0 3,0 12,1 12,3 0 0 5 3 N 1032,3 9 0 0,0
20.03.2019 00:00:00 5,4 4,2 4,6 12,2 12,3 0 0 5 3 N 1032,3 11 0 0,0
19.03.2019 23:00:00 6,1 4,7 4,8 12,3 12,3 3 2 8 4 NNW 1032,0 15 0 0,0
19.03.2019 22:00:00 6,8 4,5 5,8 12,4 12,3 3 2 9 5 NW 1031,5 21 0 0,0
19.03.2019 21:00:00 7,7 4,8 6,9 12,4 12,3 5 3 11 6 NW 1031,0 12 0 0,0
19.03.2019 20:00:00 9,3 5,1 8,2 12,4 12,3 5 3 14 8 WNW 1030,4 26 0 0,0
19.03.2019 19:00:00 11,2 4,9 11,1 12,3 12,3 8 5 21 12 NNW 1029,9 31 47 0,0
19.03.2019 18:00:00 11,6 4,6 12,3 12,3 12,3 11 6 20 11 NNW 1029,4 35 5 0,0
19.03.2019 17:00:00 11,8 3,8 13,0 12,2 12,3 8 4 18 10 NNW 1029,2 28 0 0,0
19.03.2019 16:00:00 11,9 3,4 12,6 12,1 12,3 6 3 16 9 N 1029,2 25 0 0,0
19.03.2019 15:00:00 11,5 3,3 13,1 12,0 12,3 6 4 19 11 N 1029,1 14 4 0,0
19.03.2019 14:00:00 11,3 3,3 11,9 11,9 12,3 12 7 22 12 NE 1029,3 26 1 0,0
19.03.2019 13:00:00 11,1 3,1 12,2 11,8 12,3 13 7 24 13 NNE 1029,6 14 8 0,0
19.03.2019 12:00:00 10,3 3,8 11,5 11,7 12,3 13 7 23 12 N 1029,3 33 3 0,0
19.03.2019 11:00:00 10,1 3,6 11,1 11,7 12,3 8 5 18 10 N 1029,1 12 10 0,0
19.03.2019 10:00:00 9,4 6,3 10,2 11,8 12,3 5 3 10 6 NNW 1028,9 10 55 0,0
19.03.2019 09:00:00 8,3 6,6 6,9 11,8 12,2 4 2 13 7 NNE 1028,4 8 36 0,0
19.03.2019 08:00:00 6,7 6,3 4,9 11,9 12,3 0 0 5 3 N 1028,1 4,0 19 0,0
19.03.2019 07:00:00 6,7 6,1 5,4 11,9 12,3 2 1 7 4 NW 1027,4 4,2 0 0,0
19.03.2019 06:00:00 7,6 6,8 7,1 12,0 12,3 2 1 9 5 W 1027,1 16 0 0,0
19.03.2019 05:00:00 7,6 7,0 7,0 12,1 12,3 4 2 6 3 WSW 1026,9 13 0 0,2
19.03.2019 04:00:00 7,5 6,8 7,1 12,2 12,3 2 1 5 3 W 1026,8 18 0 0,0
19.03.2019 03:00:00 7,5 6,8 7,1 12,2 12,3 3 2 6 3 WSW 1027,4 12 0 0,4
19.03.2019 02:00:00 7,8 7,0 7,3 12,3 12,3 0 0 4 2 N 1027,8 7 0 1,2
19.03.2019 01:00:00 7,9 7,0 7,4 12,3 12,3 3 2 5 3 W 1028,0 4,1 0 0,8
19.03.2019 00:00:00 8,2 7,1 7,1 12,3 12,3 0 0 4 2 N 1027,9 9 0 0,2
18.03.2019 23:00:00 8,2 6,7 7,4 12,4 12,3 2 1 14 7 W 1028,3 8 0 0,0
18.03.2019 22:00:00 8,7 6,5 7,5 12,4 12,3 6 4 16 9 NW 1028,6 6 0 0,4
18.03.2019 21:00:00 9,1 6,4 8,0 12,5 12,3 3 2 8 5 SSW 1028,2 12 0 0,0
18.03.2019 20:00:00 9,6 5,9 7,9 12,5 12,3 9 5 18 10 NW 1028,2 4,6 0 0,2
18.03.2019 19:00:00 10,7 3,9 10,3 12,4 12,3 7 4 24 13 NW 1028,1 15 0 0,0
18.03.2019 18:00:00 11,7 3,5 11,9 12,3 12,3 17 9 34 18 WNW 1027,9 17 41 0,0
18.03.2019 17:00:00 12,9 3,3 14,8 12,1 12,3 17 9 38 20 WNW 1027,6 12 58 0,0
18.03.2019 16:00:00 13,5 3,6 14,8 11,9 12,3 20 11 37 20 WNW 1027,5 12 53 0,0
18.03.2019 15:00:00 13,6 3,9 14,0 11,7 12,2 14 8 32 17 WNW 1027,6 13 19 0,0
18.03.2019 14:00:00 13,5 3,0 12,4 11,6 12,3 9 5 20 11 SW 1028,1 12 31 0,0
18.03.2019 13:00:00 12,6 4,5 13,1 11,4 12,3 6 3 14 8 W 1028,5 12 29 0,0
18.03.2019 12:00:00 11,1 5,8 11,5 11,3 12,3 8 4 19 10 WSW 1029,0 15 23 0,0
18.03.2019 11:00:00 11,5 4,9 11,7 11,3 12,2 3 2 10 5 W 1029,2 12 52 0,0
18.03.2019 10:00:00 8,5 6,6 6,7 11,4 12,3 5 3 25 13 SSW 1028,8 13 21 0,0
18.03.2019 09:00:00 6,4 6,0 6,4 11,4 12,2 3 2 8 4 S 1028,3 10 26 0,0
18.03.2019 08:00:00 5,1 4,8 3,6 11,5 12,2 2 1 5 3 SSE 1027,6 8 17 0,0
18.03.2019 07:00:00 5,0 4,6 3,5 11,6 12,3 2 1 6 3 S 1027,1 6 0 0,0
18.03.2019 06:00:00 5,4 4,7 3,6 11,7 12,2 4 2 10 5 E 1026,7 9 0 0,2
18.03.2019 05:00:00 5,8 5,2 4,9 11,8 12,3 4 2 11 6 SW 1026,2 10 0 0,0
18.03.2019 04:00:00 5,6 4,7 4,7 11,8 12,3 0 0 5 3 N 1026,3 4,5 0 0,0
18.03.2019 03:00:00 6,4 5,0 4,5 11,9 12,3 5 3 18 10 E 1026,2 12 0 0,0
18.03.2019 02:00:00 5,7 4,7 4,6 12,0 12,2 5 3 12 6 SSW 1026,2 9 0 0,4
18.03.2019 01:00:00 6,3 4,5 4,3 12,2 12,2 6 3 19 10 SSW 1026,8 9 0 0,4
18.03.2019 00:00:00 5,1 3,6 3,6 12,3 12,2 5 3 7 4 S 1026,5 9 0 0,0
17.03.2019 23:00:00 5,2 3,5 3,7 12,4 12,2 2 1 10 5 SSW 1026,4 8 0 0,0
17.03.2019 22:00:00 6,5 3,6 4,8 12,5 12,2 5 3 9 5 W 1026,1 10 0 0,0
17.03.2019 21:00:00 6,9 3,7 5,2 12,5 12,2 4 2 7 4 SW 1025,8 12 0 0,0
17.03.2019 20:00:00 8,6 3,8 7,7 12,6 12,2 4 2 26 14 W 1025,0 16 0 0,0
17.03.2019 19:00:00 10,3 3,1 9,8 12,5 12,2 9 5 21 12 WNW 1024,5 15 22 0,0
17.03.2019 18:00:00 10,9 3,2 10,8 12,5 12,2 10 6 36 19 WNW 1023,9 15 11 0,0
17.03.2019 17:00:00 12,0 2,2 12,2 12,5 12,2 16 9 39 21 WNW 1023,4 20 35 0,0
17.03.2019 16:00:00 12,8 2,9 13,0 12,4 12,2 19 10 40 21 NW 1023,1 16 11 0,0
17.03.2019 15:00:00 12,0 4,5 11,7 12,3 12,2 14 8 38 20 NW 1022,8 14 0 0,0
17.03.2019 14:00:00 12,5 4,7 10,7 12,3 12,2 17 9 32 17 NW 1022,3 12 0 0,0
17.03.2019 13:00:00 11,6 8,4 10,6 12,3 12,2 11 6 40 22 NW 1022,1 10 0 0,0
17.03.2019 12:00:00 10,8 8,2 9,5 12,3 12,2 10 5 31 17 W 1021,4 12 0 0,0
17.03.2019 11:00:00 10,1 8,7 9,7 12,3 12,2 14 7 38 20 NW 1020,4 5 0 1,0
17.03.2019 10:00:00 12,6 8,5 11,6 12,3 12,2 15 8 24 13 WSW 1019,0 9 0 0,0
17.03.2019 09:00:00 11,5 9,1 11,0 12,3 12,2 13 7 21 11 SSW 1018,6 8 0 0,0
17.03.2019 08:00:00 11,1 8,8 10,0 12,4 12,2 11 6 16 9 SSW 1017,7 8 0 0,0
17.03.2019 07:00:00 10,6 8,5 9,4 12,4 12,2 7 4 14 8 SSW 1017,1 8 0 0,0
17.03.2019 06:00:00 11,5 8,4 10,8 12,5 12,2 9 5 16 9 WSW 1017,1 9 0 0,0
17.03.2019 05:00:00 11,5 8,4 11,3 12,5 12,2 8 4 14 8 W 1016,6 10 0 0,0
17.03.2019 04:00:00 11,4 8,6 11,1 12,5 12,2 7 4 17 9 W 1016,2 9 0 0,0
17.03.2019 03:00:00 11,4 8,4 11,2 12,6 12,2 9 5 23 12 W 1016,0 9 0 0,0
17.03.2019 02:00:00 11,6 9,2 11,4 12,6 12,2 9 5 23 12 W 1015,8 9 0 0,0
17.03.2019 01:00:00 11,7 9,8 11,2 12,7 12,2 11 6 29 16 W 1016,2 9 0 0,0
17.03.2019 00:00:00 11,9 10,1 11,4 12,8 12,2 16 9 30 16 W 1016,1 8 0 0,0
16.03.2019 23:00:00 11,9 8,9 9,8 12,8 12,2 13 7 24 13 W 1015,2 15 0 0,0
16.03.2019 22:00:00 11,9 8,4 10,4 12,9 12,2 4 2 6 3 SE 1013,8 11 0 0,0
16.03.2019 21:00:00 13,9 8,9 12,2 12,8 12,2 0 0 7 4 N 1013,9 18 0 0,0
16.03.2019 20:00:00 15,9 9,3 13,8 12,8 12,2 4 2 7 4 SE 1014,0 16 0 0,0
16.03.2019 19:00:00 20,0 9,0 18,8 12,7 12,2 5 3 10 6 NE 1014,2 30 48 0,0
16.03.2019 18:00:00 21,4 8,3 23,8 12,5 12,2 5 3 12 6 NE 1014,4 25 60 0,0
16.03.2019 17:00:00 21,5 9,4 24,9 12,2 12,2 8 4 15 8 NE 1014,8 19 60 0,0
16.03.2019 16:00:00 21,7 9,2 23,5 11,9 12,2 6 3 16 8 E 1015,5 32 60 0,0
16.03.2019 15:00:00 20,3 8,6 22,1 11,7 12,2 9 5 22 12 E 1016,4 18 60 0,0
16.03.2019 14:00:00 19,1 8,7 20,3 11,4 12,2 10 6 19 10 ESE 1017,8 24 60 0,0
16.03.2019 13:00:00 17,1 8,0 18,0 11,3 12,2 13 7 29 16 E 1019,1 21 60 0,0
16.03.2019 12:00:00 15,3 7,8 16,0 11,3 12,2 12 6 25 13 ESE 1020,2 20 60 0,0
16.03.2019 11:00:00 13,0 7,0 13,0 11,2 12,2 16 9 24 13 ESE 1021,0 16 60 0,0
16.03.2019 10:00:00 10,2 6,9 8,5 11,3 12,2 10 5 16 9 E 1021,8 16 60 0,0
16.03.2019 09:00:00 5,9 4,9 4,3 11,4 12,2 9 5 14 8 E 1022,6 10 60 0,0
16.03.2019 08:00:00 3,9 3,6 1,3 11,5 12,2 4 2 8 4 ENE 1023,1 6 24 0,0
16.03.2019 07:00:00 3,9 3,6 1,5 11,7 12,2 5 3 8 4 ENE 1023,7 8 0 0,0

tt = Température de l'air
td = dewpoint
tt 5cm = Température de l'air 5cm
tt -20cm = Température de l'air -20cm
tt -100cm = Température de l'air -100cm
ff = Vitesse du vent
fx = gusts
dd = Direction du vent
ppp = reduced air pressure
vv = visibility
sd = Ensoleillement
rr = Quantités de précipitations

stations d'obs. à proximité